Location: Ciserano
(45.5833°N, 9.6000°E)
Time: 10:10:23
(UTC+00:00)

SL-4 R/B - Pass Details

Date: 29 November 2020
Orbit: 428 x 664 km, 51.6° (Epoch: 25 January)

Event Time Altitude Azimuth Distance (km) Brightness Sun altitude
Exits shadow 04:15:01 29° 28° (NNE) 950 3.3 -24.6°
Drops below altitude 10° 04:17:24 10° 58° (ENE) 1,679 5.1 -24.2°
Sets 04:19:36 0° 68° (ENE) 2,522 6.4 -23.8°
